Hourly Data Report for May 15, 2017

ATIKOKAN (AUT)
ONTARIO

48°45'40.000" N
91°37'41.000" W
389.30 m
6020LPQ
71747
WCH

Download Data

Hourly Data (May 2017)
Hourly Data Report for May 15, 2017
TIME
LST
Temp Definition
°C
Dew Point Definition
°C
Rel Hum Definition
%
Precip. Amount Definition
mm

Wind Dir Definition
10's deg

Wind Spd Definition
km/h
Visibility Definition
km
Stn Press Definition
kPa
Hmdx Definition


Wind Chill Definition


Weather Definition


00:00 10.3 -3.4 38 0.0 14 6   96.73     LegendNANA
01:00 8.2 0.5 59 0.0 23 6   96.75     LegendNANA
02:00 6.7 3.4 80 0.0 2 5   96.73     LegendNANA
03:00 6.2 4.0 86 0.9 7 4   96.73     LegendNANA
04:00 5.9 2.8 81 0.0 7 4   96.67     LegendNANA
05:00 6.2 3.9 85 0.0 3 2   96.71     LegendNANA
06:00 7.3 4.2 81 0.0   0   96.74     LegendNANA
07:00 7.9 1.5 64 0.0   0   96.76     LegendNANA
08:00 10.7 1.9 55 0.0 19 6   96.75     LegendNANA
09:00 12.6 4.1 56 0.0 24 10   96.71     LegendNANA
10:00 14.9 5.6 54 0.0 18 3   96.67     LegendNANA
11:00 18.3 7.0 48 0.0 16 3   96.62     LegendNANA
12:00 19.9 7.2 44 0.0 14 1   96.59     LegendNANA
13:00 20.8 6.3 39 0.0 24 5   96.55     LegendNANA
14:00 21.7 4.6 33 0.0 6 5   96.46     LegendNANA
15:00 22.3 3.6 30 0.0 5 2   96.39     LegendNANA
16:00 22.4 4.4 31 0.0 10 7   96.41     LegendNANA
17:00 23.0 2.9 27 0.0 5 3   96.41     LegendNANA
18:00 21.9 3.5 30 0.0 12 2   96.35     LegendNANA
19:00 20.6 4.1 34 0.0 8 2   96.36     LegendNANA
20:00 15.9 6.0 52 0.0 2 3   96.30     LegendNANA
21:00 12.4 7.2 71 0.0 3 1   96.33     LegendNANA
22:00 10.5 6.5 76 0.0 7 2   96.35     LegendNANA
23:00 14.5 9.6 72 0.0 20 4   96.31     LegendNANA

Notes on Data Quality.

Legend

  • E = Estimated
  • M = Missing
  • NA = Not Available*
  • [empty] = Indicates an unobserved value
Date modified: